Hourly Weather Bolshie Noli

Today, 20 June, Sunday

Time Temperature Precipitation Wind Pressure Humidity
00:00 +20°C° 0 mm 5 mps 752 mmHg 78%
01:00 +19°C° 0 mm 4 mps 752 mmHg 81%
02:00 +19°C° 0 mm 4 mps 753 mmHg 83%
03:00 +18°C° 0 mm 3 mps 753 mmHg 85%
04:00 +19°C° 0 mm 3 mps 753 mmHg 83%
05:00 +20°C° 0 mm 3 mps 754 mmHg 80%
06:00 +21°C° 0 mm 2 mps 754 mmHg 77%
07:00 +24°C° 0 mm 3 mps 754 mmHg 73%
08:00 +25°C° 0 mm 3 mps 754 mmHg 69%
09:00 +26°C° 0 mm 3 mps 754 mmHg 64%
10:00 +27°C° 0 mm 3 mps 755 mmHg 61%
11:00 +27°C° 0 mm 3 mps 755 mmHg 59%
12:00 +28°C° 0 mm 3 mps 755 mmHg 56%
13:00 +28°C° 0 mm 3 mps 755 mmHg 56%
14:00 +28°C° 0 mm 3 mps 755 mmHg 56%
15:00 +28°C° 0 mm 3 mps 755 mmHg 57%
16:00 +27°C° 0 mm 2 mps 755 mmHg 60%
17:00 +27°C° 0 mm 2 mps 755 mmHg 63%
18:00 +27°C° 0 mm 2 mps 755 mmHg 66%
19:00 +25°C° 0 mm 2 mps 755 mmHg 68%
20:00 +23°C° 0 mm 2 mps 755 mmHg 70%
21:00 +20°C° 0 mm 3 mps 755 mmHg 72%
22:00 +19°C° 0 mm 3 mps 755 mmHg 70%
23:00 +19°C° 0 mm 3 mps 755 mmHg 68%

Tomorrow, 21 June, Monday

Time Temperature Precipitation Wind Pressure Humidity
00:00 +19°C° 0 mm 3 mps 755 mmHg 67%
01:00 +19°C° 0.1 mm 3 mps 755 mmHg 70%
02:00 +19°C° 0.1 mm 3 mps 755 mmHg 73%
03:00 +19°C° 0.1 mm 3 mps 755 mmHg 77%
04:00 +19°C° 0.1 mm 3 mps 755 mmHg 79%
05:00 +20°C° 0.1 mm 3 mps 755 mmHg 82%
06:00 +21°C° 0.1 mm 2 mps 755 mmHg 84%
07:00 +24°C° 0 mm 3 mps 755 mmHg 77%
08:00 +26°C° 0 mm 3 mps 755 mmHg 69%
09:00 +28°C° 0 mm 3 mps 755 mmHg 62%
10:00 +29°C° 0 mm 4 mps 755 mmHg 58%
11:00 +30°C° 0 mm 4 mps 755 mmHg 55%
12:00 +30°C° 0 mm 5 mps 754 mmHg 51%
13:00 +32°C° 0 mm 5 mps 754 mmHg 51%
14:00 +32°C° 0 mm 5 mps 754 mmHg 51%
15:00 +32°C° 0 mm 5 mps 754 mmHg 51%
16:00 +30°C° 0 mm 4 mps 754 mmHg 56%
17:00 +29°C° 0 mm 3 mps 753 mmHg 61%
18:00 +29°C° 0 mm 3 mps 753 mmHg 66%
19:00 +27°C° 0 mm 3 mps 753 mmHg 69%
20:00 +26°C° 0 mm 3 mps 754 mmHg 73%
21:00 +24°C° 0 mm 3 mps 754 mmHg 76%
22:00 +24°C° 0 mm 3 mps 754 mmHg 79%
23:00 +22°C° 0 mm 3 mps 754 mmHg 81%

Day after tomorrow, 22 June, Tuesday

Time Temperature Precipitation Wind Pressure Humidity
00:00 +21°C° 0 mm 3 mps 754 mmHg 84%
01:00 +21°C° 0 mm 3 mps 754 mmHg 84%
02:00 +21°C° 0 mm 3 mps 754 mmHg 85%
03:00 +20°C° 0 mm 3 mps 754 mmHg 85%
04:00 +21°C° 0 mm 3 mps 754 mmHg 81%
05:00 +22°C° 0 mm 3 mps 754 mmHg 78%
06:00 +24°C° 0 mm 3 mps 754 mmHg 74%
07:00 +26°C° 0 mm 3 mps 754 mmHg 69%
08:00 +28°C° 0 mm 4 mps 754 mmHg 64%
09:00 +29°C° 0 mm 4 mps 754 mmHg 59%
10:00 +30°C° 0 mm 4 mps 754 mmHg 56%
11:00 +32°C° 0 mm 4 mps 755 mmHg 53%
12:00 +33°C° 0 mm 4 mps 755 mmHg 50%
13:00 +33°C° 0 mm 4 mps 754 mmHg 50%
14:00 +33°C° 0 mm 4 mps 754 mmHg 49%
15:00 +33°C° 0 mm 4 mps 754 mmHg 48%
16:00 +31°C° 0 mm 3 mps 754 mmHg 55%
17:00 +30°C° 0 mm 3 mps 754 mmHg 61%
18:00 +29°C° 0 mm 2 mps 754 mmHg 68%
19:00 +27°C° 0 mm 2 mps 754 mmHg 71%
20:00 +25°C° 0 mm 2 mps 754 mmHg 75%
21:00 +23°C° 0 mm 1 mps 753 mmHg 79%
22:00 +23°C° 0 mm 2 mps 753 mmHg 78%
23:00 +23°C° 0 mm 2 mps 754 mmHg 78%

23 June, Wednesday

Time Temperature Precipitation Wind Pressure Humidity
00:00 +21°C° 0 mm 3 mps 754 mmHg 78%
01:00 +21°C° 0 mm 3 mps 754 mmHg 79%
02:00 +20°C° 0 mm 3 mps 753 mmHg 80%
03:00 +20°C° 0 mm 3 mps 753 mmHg 81%
04:00 +21°C° 0 mm 3 mps 753 mmHg 79%
05:00 +22°C° 0 mm 3 mps 754 mmHg 77%
06:00 +24°C° 0 mm 3 mps 754 mmHg 74%
07:00 +26°C° 0 mm 3 mps 754 mmHg 70%
08:00 +27°C° 0 mm 4 mps 754 mmHg 65%
09:00 +29°C° 0 mm 4 mps 754 mmHg 60%
10:00 +30°C° 0 mm 4 mps 753 mmHg 57%
11:00 +32°C° 0 mm 4 mps 753 mmHg 54%
12:00 +32°C° 0 mm 5 mps 753 mmHg 51%
13:00 +33°C° 0 mm 4 mps 753 mmHg 51%
14:00 +33°C° 0 mm 4 mps 753 mmHg 51%
15:00 +33°C° 0 mm 4 mps 753 mmHg 51%
16:00 +32°C° 0.1 mm 4 mps 753 mmHg 57%
17:00 +30°C° 0.1 mm 4 mps 753 mmHg 63%
18:00 +28°C° 0.1 mm 4 mps 752 mmHg 69%
19:00 +27°C° 0.2 mm 3 mps 752 mmHg 71%
20:00 +26°C° 0.2 mm 3 mps 752 mmHg 73%
21:00 +25°C° 0.2 mm 2 mps 752 mmHg 75%
22:00 +24°C° 0.4 mm 2 mps 752 mmHg 80%
23:00 +22°C° 0.4 mm 1 mps 752 mmHg 84%

24 June, Thursday

Time Temperature Precipitation Wind Pressure Humidity
00:00 +21°C° 0.4 mm 1 mps 752 mmHg 89%
01:00 +21°C° 0 mm 1 mps 752 mmHg 89%
02:00 +21°C° 0 mm 1 mps 752 mmHg 89%
03:00 +21°C° 0 mm 1 mps 752 mmHg 89%
04:00 +22°C° 0.1 mm 1 mps 752 mmHg 86%
05:00 +23°C° 0.1 mm 1 mps 752 mmHg 83%
06:00 +24°C° 0.1 mm 1 mps 753 mmHg 81%
07:00 +25°C° 0 mm 1 mps 753 mmHg 75%
08:00 +26°C° 0 mm 1 mps 753 mmHg 70%
09:00 +28°C° 0 mm 1 mps 753 mmHg 65%
10:00 +29°C° 0 mm 1 mps 753 mmHg 61%
11:00 +30°C° 0 mm 1 mps 753 mmHg 57%
12:00 +31°C° 0 mm 1 mps 753 mmHg 53%
13:00 +31°C° 0 mm 1 mps 753 mmHg 52%
14:00 +31°C° 0 mm 1 mps 753 mmHg 51%
15:00 +32°C° 0 mm 1 mps 753 mmHg 51%
16:00 +31°C° 0 mm 1 mps 752 mmHg 55%
17:00 +31°C° 0 mm 1 mps 752 mmHg 59%
18:00 +30°C° 0 mm 1 mps 752 mmHg 63%
19:00 +28°C° 0.3 mm 2 mps 752 mmHg 71%
20:00 +26°C° 0.3 mm 2 mps 752 mmHg 79%
21:00 +22°C° 0.3 mm 3 mps 752 mmHg 87%
22:00 +23°C° 0.9 mm 2 mps 752 mmHg 88%
23:00 +21°C° 0.9 mm 2 mps 752 mmHg 90%

25 June, Friday

Time Temperature Precipitation Wind Pressure Humidity
00:00 +21°C° 0.9 mm 1 mps 752 mmHg 91%
01:00 +21°C° 0 mm 1 mps 752 mmHg 91%
02:00 +20°C° 0 mm 2 mps 752 mmHg 92%
03:00 +19°C° 0 mm 2 mps 752 mmHg 92%
04:00 +20°C° 0 mm 2 mps 752 mmHg 88%
05:00 +21°C° 0 mm 2 mps 752 mmHg 84%
06:00 +23°C° 0 mm 2 mps 752 mmHg 81%
07:00 +25°C° 0 mm 2 mps 752 mmHg 75%
08:00 +26°C° 0 mm 2 mps 752 mmHg 68%
09:00 +28°C° 0 mm 1 mps 752 mmHg 62%
10:00 +29°C° 0 mm 2 mps 752 mmHg 59%
11:00 +30°C° 0 mm 2 mps 752 mmHg 57%
12:00 +31°C° 0 mm 2 mps 752 mmHg 54%
13:00 +32°C° 0 mm 2 mps 752 mmHg 53%
14:00 +32°C° 0 mm 2 mps 752 mmHg 52%
15:00 +34°C° 0 mm 3 mps 751 mmHg 52%
16:00 +32°C° 0 mm 2 mps 751 mmHg 56%
17:00 +32°C° 0 mm 2 mps 751 mmHg 61%
18:00 +31°C° 0 mm 2 mps 750 mmHg 65%
19:00 +29°C° 0.4 mm 2 mps 750 mmHg 71%
20:00 +27°C° 0.4 mm 1 mps 750 mmHg 76%
21:00 +25°C° 0.4 mm 1 mps 750 mmHg 81%
22:00 +25°C° 1.8 mm 1 mps 750 mmHg 84%
23:00 +24°C° 1.8 mm 2 mps 750 mmHg 87%
Show more